Location: Mannheim
(49.4880°N, 8.4650°E)
Time: 21:51:15
(UTC+02:00)

ISS - Visible Passes

Search period start: 15 July 2018 00:00
Search period end: 25 July 2018 00:00
Orbit: 402 x 408 km, 51.6° (Epoch: 16 July)

Date Brightness Start Highest point End Pass type
(mag) Time Alt. Az. Time Alt. Az. Time Alt. Az.
15 Jul -3.5 01:49:52 50° ESE 01:49:52 50° ESE 01:52:37 10° ENE visible
15 Jul -3.2 03:22:38 10° W 03:25:54 59° N 03:29:10 10° ENE visible
16 Jul -1.9 00:59:18 19° E 00:59:18 19° E 01:00:29 10° E visible
16 Jul -3.5 02:31:56 23° W 02:33:47 68° NNW 02:37:05 10° ENE visible
16 Jul -3.3 04:07:13 10° WNW 04:10:30 62° N 04:13:46 10° E visible
17 Jul -3.9 01:41:12 62° W 01:41:41 86° NNW 01:45:00 10° ENE visible
17 Jul -3.2 03:15:06 10° WNW 03:18:21 57° N 03:21:37 10° E visible
17 Jul -3.9 04:51:40 10° WNW 04:54:57 74° SSW 04:58:15 10° ESE visible
18 Jul -3.5 00:50:13 52° E 00:50:13 52° E 00:52:54 10° ENE visible
18 Jul -3.2 02:22:57 10° W 02:26:12 57° N 02:29:28 10° ENE visible
18 Jul -3.8 03:59:35 10° WNW 04:02:53 82° NNE 04:06:11 10° ESE visible
18 Jul -3.3 23:58:12 39° ESE 23:58:12 39° ESE 00:00:45 10° ENE visible
19 Jul -3.4 01:30:46 10° W 01:34:02 64° N 01:37:20 10° ENE visible
19 Jul -3.4 03:07:28 10° WNW 03:10:45 66° N 03:14:02 10° E visible
19 Jul -3.4 04:44:02 10° WNW 04:47:11 42° SSW 04:50:19 10° SE visible
19 Jul -3.0 23:02:41 10° SSW 23:05:35 29° SE 23:08:30 10° E visible
20 Jul -3.8 00:38:36 10° WSW 00:41:54 78° NNW 00:45:12 10° ENE visible
20 Jul -3.2 02:15:19 10° WNW 02:18:35 58° N 02:21:51 10° E visible
20 Jul -3.9 03:51:53 10° WNW 03:55:09 64° SSW 03:58:25 10° ESE visible
20 Jul -2.4 22:11:16 10° S 22:13:39 19° SE 22:16:03 10° E visible
20 Jul -4.0 23:46:29 10° WSW 23:49:46 79° SSE 23:53:04 10° ENE visible
21 Jul -3.2 01:23:08 10° W 01:26:24 56° N 01:29:39 10° E visible
21 Jul -3.9 02:59:44 10° WNW 03:03:03 89° SSE 03:06:20 10° ESE visible
21 Jul -2.6 04:36:35 10° W 04:39:14 23° SW 04:41:54 10° SSE visible
21 Jul -3.8 22:54:28 10° SW 22:57:40 54° SSE 23:00:55 10° ENE visible
22 Jul -3.3 00:30:56 10° W 00:34:11 60° N 00:37:28 10° ENE visible
22 Jul -3.6 02:07:36 10° WNW 02:10:53 71° NNE 02:14:11 10° E visible
22 Jul -3.3 03:44:12 10° W 03:47:15 35° SSW 03:50:18 10° SE visible
22 Jul -3.2 22:02:37 10° SW 22:05:38 34° SSE 22:08:40 10° E visible
22 Jul -3.6 23:38:43 10° W 23:42:00 72° NNW 23:45:17 10° ENE visible
23 Jul -3.3 01:15:26 10° WNW 01:18:41 60° N 01:20:48 20° E visible
23 Jul -2.1 02:51:59 10° WNW 02:53:17 22° W 02:53:17 22° W visible
23 Jul -3.9 22:46:32 10° WSW 22:49:49 88° S 22:53:07 10° ENE visible
24 Jul -3.2 00:23:13 10° W 00:26:28 56° N 00:29:05 15° ENE visible
24 Jul -2.5 01:59:47 10° WNW 02:01:40 31° WNW 02:01:40 31° WNW visible
24 Jul -3.8 21:54:26 10° WSW 21:57:40 62° SSE 22:00:56 10° ENE visible
24 Jul -3.2 23:30:58 10° W 23:34:13 58° N 23:37:29 10° ENE visible
